W0KHZ Weather Reports


Display with metric or nautical units.
time (UTC)temp
F
wind
direction
speed
MPH
gust
MPH
rain 1hr
in
rain 24hr
in
rain mn
in
humidity
%
barometer
mb
20260901191528 88 0.0 0.0 0.00 0.00 0.00 64 1042.3
20260901191045 89 0.0 0.0 0.00 0.00 0.00 65 1042.2
20260901190543 88 0.0 0.0 0.00 0.00 0.00 65 1042.2
20260901190020 88 0.0 0.0 0.00 0.00 0.00 65 1042.3
20260901185517 88 0.0 0.0 0.00 0.00 0.00 65 1042.3
20260901185034 88 0.0 0.0 0.00 0.00 0.00 65 1042.3
20260901184530 88 0.0 0.0 0.00 0.00 0.00 67 1042.3
20260901184027 87 0.0 0.0 0.00 0.00 0.00 65 1042.4
20260901183524 88 232 0.0 1.0 0.00 0.00 0.00 65 1042.3
20260901183021 88 0.0 0.0 0.00 0.00 0.00 64 1042.2
20260901182517 88 0.0 0.0 0.00 0.00 0.00 64 1042.2
20260901182035 89 0.0 0.0 0.00 0.00 0.00 63 1042.4
20260901181531 89 0.0 0.0 0.00 0.00 0.00 64 1042.2
20260901181028 89 0.0 0.0 0.00 0.00 0.00 64 1042.3
20260901180526 89 199 0.0 2.0 0.00 0.00 0.00 66 1042.2
20260901180022 89 129 0.0 2.0 0.00 0.00 0.00 67 1042.3
20260901175520 88 114 0.0 2.0 0.00 0.00 0.00 66 1042.3
20260901175018 88 0.0 0.0 0.00 0.00 0.00 67 1042.4
20260901174535 88 274 0.0 1.0 0.00 0.00 0.00 67 1042.4
20260901174030 88 187 0.0 1.0 0.00 0.00 0.00 67 1042.5
20260901173547 87 265 0.0 2.0 0.00 0.00 0.00 67 1042.5
20260901173024 87 0.0 0.0 0.00 0.00 0.00 69 1042.4
20260901172522 87 135 0.0 1.0 0.00 0.00 0.00 69 1042.5
20260901172019 87 135 0.0 1.0 0.00 0.00 0.00 70 1042.6
20260901171517 86 135 0.0 2.0 0.00 0.00 0.00 73 1042.6
20260901171034 86 135 0.0 1.0 0.00 0.00 0.00 74 1042.7
20260901170529 86 135 0.0 1.0 0.00 0.00 0.00 77 1042.8
20260901170026 85 145 0.0 2.0 0.00 0.00 0.00 78 1042.8
20260901165543 85 170 0.0 1.0 0.00 0.00 0.00 79 1042.7
20260901165021 85 170 0.0 1.0 0.00 0.00 0.00 79 1042.7
20260901164538 84 0.0 0.0 0.00 0.00 0.00 79 1042.7
20260901164035 84 170 0.0 2.0 0.00 0.00 0.00 80 1042.8
20260901163530 84 177 0.0 2.0 0.00 0.00 0.00 81 1042.8
20260901163027 83 130 0.0 1.0 0.00 0.00 0.00 83 1042.9
20260901162524 83 129 0.0 1.0 0.00 0.00 0.00 83 1042.8
20260901162021 82 141 0.0 1.0 0.00 0.00 0.00 84 1042.7
20260901161519 82 0.0 0.0 0.00 0.00 0.00 84 1042.8
20260901161017 81 236 0.0 1.0 0.00 0.00 0.00 85 1042.8
20260901160532 81 261 0.0 2.0 0.00 0.00 0.00 86 1042.8
20260901160028 81 256 0.0 1.0 0.00 0.00 0.00 88 1042.9
20260901155545 80 165 0.0 1.0 0.00 0.00 0.00 90 1042.8
20260901155022 80 149 0.0 2.0 0.00 0.00 0.00 91 1042.7
20260901154519 80 153 0.0 2.0 0.00 0.00 0.00 92 1042.9
20260901154016 79 0.0 0.0 0.00 0.00 0.00 93 1043.0
20260901153534 79 0.0 0.0 0.00 0.00 0.00 93 1042.9
20260901153029 78 0.0 0.0 0.00 0.00 0.00 93 1043.1
20260901152526 77 0.0 0.0 0.00 0.00 0.00 93 1043.0
20260901152023 77 0.0 0.0 0.00 0.00 0.00 93 1042.9
20260901151521 77 0.0 0.0 0.00 0.00 0.00 93 1042.9
20260901151018 76 0.0 0.0 0.00 0.00 0.00 93 1042.9
20260901150515 76 0.0 0.0 0.00 0.00 0.00 93 1042.9
20260901150031 75 0.0 0.0 0.00 0.00 0.00 93 1042.8
20260901145548 75 0.0 0.0 0.00 0.00 0.00 93 1042.8
20260901145025 74 0.0 0.0 0.00 0.00 0.00 93 1042.8
20260901144522 74 0.0 0.0 0.00 0.00 0.00 93 1042.9
20260901144019 73 0.0 0.0 0.00 0.00 0.00 93 1043.0
20260901143516 73 0.0 0.0 0.00 0.00 0.00 93 1043.0
20260901143053 72 0.0 0.0 0.00 0.00 0.00 93 1043.0
20260901142529 72 0.0 0.0 0.00 0.00 0.00 93 1042.9
20260901142026 72 0.0 0.0 0.00 0.00 0.00 93 1042.9
20260901141524 72 0.0 0.0 0.00 0.00 0.00 93 1043.0
20260901141020 72 0.0 0.0 0.00 0.00 0.00 93 1043.0
20260901140518 71 0.0 0.0 0.00 0.00 0.00 93 1043.0
20260901140035 71 0.0 0.0 0.00 0.00 0.00 93 1043.0
20260901135531 71 0.0 0.0 0.00 0.00 0.00 93 1043.1
20260901135027 71 0.0 0.0 0.00 0.00 0.00 93 1043.1
20260901134605 71 0.0 0.0 0.00 0.00 0.00 93 1043.0
20260901134021 71 0.0 0.0 0.00 0.00 0.00 93 1043.1
20260901133559 71 0.0 0.0 0.00 0.00 0.00 93 1043.1
20260901133035 71 0.0 0.0 0.00 0.00 0.00 93 1043.2
20260901132531 71 0.0 0.0 0.00 0.00 0.00 93 1043.2
20260901132027 71 0.0 0.0 0.00 0.00 0.00 93 1043.2
20260901131525 71 0.0 0.0 0.00 0.00 0.00 93 1043.1
20260901131022 71 0.0 0.0 0.00 0.00 0.00 93 1043.2
20260901130539 71 0.0 0.0 0.00 0.00 0.00 93 1043.1
20260901130015 70 0.0 0.0 0.00 0.00 0.00 93 1043.0
20260901125531 70 0.0 0.0 0.00 0.00 0.00 93 1043.0
20260901125028 70 0.0 0.0 0.00 0.00 0.00 93 1042.9
20260901124525 70 0.0 0.0 0.00 0.00 0.00 93 1043.0
20260901124022 70 0.0 0.0 0.00 0.00 0.00 93 1043.1
20260901123519 70 0.0 0.0 0.00 0.00 0.00 93 1042.8
20260901123016 70 0.0 0.0 0.00 0.00 0.00 93 1043.0
20260901122533 70 0.0 0.0 0.00 0.00 0.00 93 1042.9
20260901122029 70 0.0 0.0 0.00 0.00 0.00 93 1042.9
20260901121527 70 0.0 0.0 0.00 0.00 0.00 93 1042.8
20260901121024 70 0.0 0.0 0.00 0.00 0.00 93 1042.7
20260901120521 70 0.0 0.0 0.00 0.00 0.00 93 1042.6
20260901120019 70 0.0 0.0 0.00 0.00 0.00 93 1042.6
20260901115535 70 0.0 0.0 0.00 0.00 0.00 93 1042.5
20260901115032 70 0.0 0.0 0.00 0.00 0.00 93 1042.5
20260901114529 70 0.0 0.0 0.00 0.00 0.00 93 1042.4
20260901114026 70 0.0 0.0 0.00 0.00 0.00 93 1042.4
20260901113523 71 0.0 0.0 0.00 0.00 0.00 93 1042.3
20260901113100 71 0.0 0.0 0.00 0.00 0.00 93 1042.3
20260901112537 71 0.0 0.0 0.00 0.00 0.00 93 1042.2
20260901112035 71 0.0 0.0 0.00 0.00 0.00 93 1042.3
20260901111531 71 0.0 0.0 0.00 0.00 0.00 93 1042.3
20260901111048 71 0.0 0.0 0.00 0.00 0.00 93 1042.3
20260901110525 71 0.0 0.0 0.00 0.00 0.00 93 1042.3
20260901110022 71 0.0 0.0 0.00 0.00 0.00 93 1042.2
20260901105539 71 0.0 0.0 0.00 0.00 0.00 93 1042.2
20260901105016 71 0.0 0.0 0.00 0.00 0.00 93 1042.1
20260901104533 71 0.0 0.0 0.00 0.00 0.00 93 1042.2
20260901104029 71 0.0 0.0 0.00 0.00 0.00 93 1042.1
20260901103546 71 0.0 0.0 0.00 0.00 0.00 93 1042.2
20260901103024 71 0.0 0.0 0.00 0.00 0.00 93 1042.2
20260901102521 71 0.0 0.0 0.00 0.00 0.00 93 1042.2
20260901102038 71 0.0 0.0 0.00 0.00 0.00 93 1042.0
20260901101516 71 0.0 0.0 0.00 0.00 0.00 93 1041.8
20260901101033 71 0.0 0.0 0.00 0.00 0.00 93 1041.9
20260901100529 71 0.0 0.0 0.00 0.00 0.00 93 1041.8
20260901100026 71 0.0 0.0 0.00 0.00 0.00 93 1041.9
20260901095523 71 0.0 0.0 0.00 0.00 0.00 93 1041.9
20260901095020 71 0.0 0.0 0.00 0.00 0.00 92 1041.8
20260901094517 71 0.0 0.0 0.00 0.00 0.00 92 1041.9
20260901094034 71 0.0 0.0 0.00 0.00 0.00 93 1041.9
20260901093550 71 0.0 0.0 0.00 0.00 0.00 92 1041.8
20260901093027 71 0.0 0.0 0.00 0.00 0.00 92 1041.9
20260901092524 71 0.0 0.0 0.00 0.00 0.00 92 1041.9
20260901092022 71 0.0 0.0 0.00 0.00 0.00 92 1041.8
20260901091539 72 0.0 0.0 0.00 0.00 0.00 92 1041.7
20260901091016 72 0.0 0.0 0.00 0.00 0.00 92 1041.7
20260901090553 71 0.0 0.0 0.00 0.00 0.00 92 1041.9
20260901090049 71 0.0 0.0 0.00 0.00 0.00 92 1041.9
20260901085526 71 0.0 0.0 0.00 0.00 0.00 92 1041.7
20260901085023 71 0.0 0.0 0.00 0.00 0.00 92 1041.7
20260901084520 72 0.0 0.0 0.00 0.00 0.00 92 1041.5
20260901084058 72 0.0 0.0 0.00 0.00 0.00 92 1041.5
20260901083535 71 0.0 0.0 0.00 0.00 0.00 92 1041.5
20260901083030 71 0.0 0.0 0.00 0.00 0.00 92 1041.5
20260901082527 71 0.0 0.0 0.00 0.00 0.00 92 1041.6
20260901082024 71 0.0 0.0 0.00 0.00 0.00 92 1041.7
20260901081521 71 0.0 0.0 0.00 0.00 0.00 92 1041.6
20260901081018 71 0.0 0.0 0.00 0.00 0.00 92 1041.6
20260901080516 71 0.0 0.0 0.00 0.00 0.00 92 1041.6
20260901080032 72 0.0 0.0 0.00 0.00 0.00 92 1041.7
20260901075528 72 0.0 0.0 0.00 0.00 0.00 92 1041.8
20260901075025 72 0.0 0.0 0.00 0.00 0.00 92 1041.7
20260901074523 72 0.0 0.0 0.00 0.00 0.00 92 1041.7
20260901074020 72 0.0 0.0 0.00 0.00 0.00 92 1041.7
20260901073557 72 0.0 0.0 0.00 0.00 0.00 92 1041.7
20260901073034 72 0.0 0.0 0.00 0.00 0.00 92 1041.7
20260901072530 72 0.0 0.0 0.00 0.00 0.00 92 1041.9
20260901072027 72 0.0 0.0 0.00 0.00 0.00 92 1041.8
20260901071524 72 0.0 0.0 0.00 0.00 0.00 92 1041.8
20260901071021 72 0.0 0.0 0.00 0.00 0.00 92 1041.9
20260901070518 72 0.0 0.0 0.00 0.00 0.00 92 1041.8
20260901070016 72 0.0 0.0 0.00 0.00 0.00 92 1041.8
20260901065533 72 0.0 0.0 0.00 0.00 0.00 92 1041.8
20260901065049 73 0.0 0.0 0.00 0.00 0.00 92 1041.9
20260901064526 73 0.0 0.0 0.00 0.00 0.00 92 1041.8
20260901064023 73 0.0 0.0 0.00 0.00 0.00 91 1041.7
20260901063540 73 0.0 0.0 0.00 0.00 0.00 91 1041.7
20260901063037 73 0.0 0.0 0.00 0.00 0.00 91 1041.8
20260901062555 73 0.0 0.0 0.00 0.00 0.00 91 1041.8
20260901062032 73 0.0 0.0 0.00 0.00 0.00 91 1041.7
20260901061528 73 0.0 0.0 0.00 0.00 0.00 91 1041.7
20260901061026 73 0.0 0.0 0.00 0.00 0.00 91 1041.7
20260901060523 73 0.0 0.0 0.00 0.00 0.00 91 1041.6
20260901060020 73 0.0 0.0 0.00 0.00 0.00 91 1041.6
20260901055517 73 0.0 0.0 0.00 0.00 0.00 91 1041.6
20260901055034 73 0.0 0.0 0.00 0.00 0.00 91 1041.5
20260901054530 73 0.0 0.0 0.00 0.00 0.00 91 1041.4
20260901054027 73 0.0 0.0 0.00 0.00 0.00 91 1041.4
20260901053524 73 0.0 0.0 0.00 0.00 0.00 91 1041.4
20260901053021 73 0.0 0.0 0.00 0.00 0.00 91 1041.3
20260901052519 73 0.0 0.0 0.00 0.00 0.00 91 1041.2
20260901052036 73 0.0 0.0 0.00 0.00 0.00 91 1041.2
20260901051534 73 0.0 0.0 0.00 0.00 0.00 91 1041.3
20260901051029 73 0.0 0.0 0.00 0.00 0.00 91 1041.3
20260901050527 73 0.0 0.0 0.00 0.00 0.00 91 1041.2
20260901050024 73 0.0 0.0 0.00 0.00 0.00 90 1041.3
20260901045541 73 0.0 0.0 0.00 0.00 0.00 90 1041.3
20260901045018 73 0.0 0.0 0.00 0.00 0.00 90 1041.4
20260901044535 73 0.0 0.0 0.00 0.00 0.00 90 1041.3
20260901044032 73 0.0 0.0 0.00 0.00 0.00 90 1041.3
20260901043528 73 0.0 0.0 0.00 0.00 0.00 90 1041.3
20260901043024 73 0.0 0.0 0.00 0.00 0.00 90 1041.3
20260901042521 73 0.0 0.0 0.00 0.00 0.00 90 1041.1
20260901042018 74 0.0 0.0 0.00 0.00 0.00 90 1041.1
20260901041515 74 0.0 0.0 0.00 0.00 0.00 90 1041.1
20260901041032 74 0.0 0.0 0.00 0.00 0.00 90 1041.1
20260901040528 74 0.0 0.0 0.00 0.00 0.00 90 1041.0
20260901040025 74 0.0 0.0 0.00 0.00 0.00 90 1041.0
20260901035522 74 0.0 0.0 0.00 0.00 0.00 89 1041.0
20260901035019 74 0.0 0.0 0.00 0.00 0.00 89 1040.9
20260901034516 74 0.0 0.0 0.00 0.00 0.00 89 1040.9
20260901034033 74 0.0 0.0 0.00 0.00 0.00 89 1040.9
20260901033529 75 0.0 0.0 0.00 0.00 0.00 89 1040.9
20260901033027 75 0.0 0.0 0.00 0.00 0.00 89 1041.0
20260901032523 75 0.0 0.0 0.00 0.00 0.00 89 1040.9
20260901032021 75 0.0 0.0 0.00 0.00 0.00 89 1040.8
20260901031518 75 0.0 0.0 0.00 0.00 0.00 88 1040.8
20260901031035 75 0.0 0.0 0.00 0.00 0.00 88 1040.9
20260901030533 75 0.0 0.0 0.00 0.00 0.00 88 1041.0
20260901030028 75 0.0 0.0 0.00 0.00 0.00 89 1041.1
20260901025525 76 0.0 0.0 0.00 0.00 0.00 88 1041.0
20260901025022 76 0.0 0.0 0.00 0.00 0.00 88 1041.0
20260901024520 76 0.0 0.0 0.00 0.00 0.00 89 1040.9
20260901024017 76 0.0 0.0 0.00 0.00 0.00 88 1040.9
20260901023554 76 0.0 0.0 0.00 0.00 0.00 88 1040.9
20260901023031 76 0.0 0.0 0.00 0.00 0.00 88 1040.8
20260901022527 76 0.0 0.0 0.00 0.00 0.00 87 1040.9
20260901022025 76 0.0 0.0 0.00 0.00 0.00 87 1040.9
20260901021522 76 0.0 0.0 0.00 0.00 0.00 87 1040.8
20260901021018 77 0.0 0.0 0.00 0.00 0.00 87 1040.8
20260901020536 77 0.0 0.0 0.00 0.00 0.00 87 1040.8
20260901020032 77 0.0 0.0 0.00 0.00 0.00 86 1040.9
20260901015528 77 0.0 0.0 0.00 0.00 0.00 86 1040.9
20260901015044 77 0.0 0.0 0.00 0.00 0.00 86 1040.9
20260901014521 78 0.0 0.0 0.00 0.00 0.00 86 1040.8
20260901014019 78 0.0 0.0 0.00 0.00 0.00 85 1040.8
20260901013516 78 0.0 0.0 0.00 0.00 0.00 85 1040.5
20260901013033 78 0.0 0.0 0.00 0.00 0.00 84 1040.6
20260901012629 79 0.0 0.0 0.00 0.00 0.00 84 1040.6
20260901012026 79 0.0 0.0 0.00 0.00 0.00 84 1040.3
20260901011523 79 0.0 0.0 0.00 0.00 0.00 83 1040.2
20260901011020 79 0.0 0.0 0.00 0.00 0.00 83 1040.2
20260901010517 80 0.0 0.0 0.00 0.00 0.00 83 1040.2
20260901010034 80 0.0 0.0 0.00 0.00 0.00 82 1040.2
20260901005530 81 0.0 0.0 0.00 0.00 0.00 81 1040.2
20260901005027 81 0.0 0.0 0.00 0.00 0.00 80 1040.2
20260901004525 82 0.0 0.0 0.00 0.00 0.00 80 1040.1
20260901004022 82 0.0 0.0 0.00 0.00 0.00 79 1040.0
20260901003519 83 0.0 0.0 0.00 0.00 0.00 79 1039.8
20260901003035 83 0.0 0.0 0.00 0.00 0.00 79 1039.8
20260901002532 83 0.0 0.0 0.00 0.00 0.00 78 1039.9
20260901002109 83 0.0 0.0 0.00 0.00 0.00 78 1039.9
20260901001525 84 0.0 0.0 0.00 0.00 0.00 78 1039.8
20260901001022 84 0.0 0.0 0.00 0.00 0.00 77 1039.9
20260901000519 84 0.0 0.0 0.00 0.00 0.00 78 1040.0
20260901000016 84 0.0 0.0 0.00 0.00 0.00 78 1040.0
20260831235533 84 303 0.0 1.0 0.00 0.00 0.00 78 1040.1
20260831235030 85 0.0 0.0 0.00 0.00 0.00 77 1040.0
20260831234547 85 0.0 0.0 0.00 0.00 0.00 78 1040.0
20260831234024 85 284 0.0 1.0 0.00 0.00 0.00 78 1039.9
20260831233521 85 145 0.0 1.0 0.00 0.00 0.00 78 1039.9
20260831233039 85 147 0.0 1.0 0.00 0.00 0.00 78 1040.0
20260831232516 85 0.0 0.0 0.00 0.00 0.00 77 1039.7
20260831232033 85 0.0 0.0 0.00 0.00 0.00 77 1039.7
20260831231529 85 0.0 0.0 0.00 0.00 0.00 77 1039.8
20260831231026 85 0.0 0.0 0.00 0.00 0.00 77 1039.7
20260831230524 85 0.0 0.0 0.00 0.00 0.00 77 1039.6
20260831230020 85 0.0 0.0 0.00 0.00 0.00 76 1039.7
20260831225517 86 232 0.0 2.0 0.00 0.00 0.00 76 1039.6
20260831225035 86 276 0.0 1.0 0.00 0.00 0.00 76 1039.6
20260831224531 86 251 0.0 1.0 0.00 0.00 0.00 75 1039.6
20260831224027 86 204 0.0 1.0 0.00 0.00 0.00 75 1039.6
20260831223545 86 270 0.0 2.0 0.00 0.00 0.00 75 1039.5
20260831223021 86 216 0.0 3.0 0.00 0.00 0.00 75 1039.5
20260831222518 87 254 0.0 2.0 0.00 0.00 0.00 74 1039.5
20260831222015 87 211 0.0 3.0 0.00 0.00 0.00 74 1039.3
20260831221533 87 199 0.0 2.0 0.00 0.00 0.00 74 1039.5
20260831221029 87 184 1.0 3.0 0.00 0.00 0.00 75 1039.4
20260831220706 87 162 0.0 1.0 0.00 0.00 0.00 75 1039.4
20260831220023 87 0.0 0.0 0.00 0.00 0.00 76 1039.2
20260831215521 87 162 0.0 2.0 0.00 0.00 0.00 75 1039.0
20260831215037 87 162 0.0 3.0 0.00 0.00 0.00 76 1039.1
20260831214535 87 0.0 0.0 0.00 0.00 0.00 76 1039.3
20260831214032 87 160 0.0 2.0 0.00 0.00 0.00 76 1039.2
20260831213528 87 0.0 0.0 0.00 0.00 0.00 76 1039.2
20260831213024 87 160 0.0 1.0 0.00 0.00 0.00 76 1039.2
20260831212522 87 160 0.0 1.0 0.00 0.00 0.00 77 1039.3
20260831212019 86 0.0 0.0 0.00 0.00 0.00 77 1039.1
20260831211516 86 120 1.0 2.0 0.00 0.00 0.00 78 1039.3
20260831211054 86 167 0.0 1.0 0.00 0.00 0.00 78 1039.3
20260831210530 86 0.0 0.0 0.00 0.00 0.00 78 1039.2
20260831210027 86 0.0 0.0 0.00 0.00 0.00 77 1039.1
20260831205544 86 0.0 0.0 0.00 0.00 0.00 76 1038.9
20260831205021 86 0.0 0.0 0.00 0.00 0.00 76 1038.9
20260831204519 86 0.0 0.0 0.00 0.00 0.00 76 1038.8
20260831204016 87 0.0 0.0 0.00 0.00 0.00 76 1038.9
20260831203533 87 0.0 0.0 0.00 0.00 0.00 76 1038.8
20260831203029 87 0.0 0.0 0.00 0.00 0.00 76 1038.8
20260831202527 86 0.0 0.0 0.00 0.00 0.00 76 1038.8
20260831202024 86 0.0 0.0 0.00 0.00 0.00 76 1038.7
20260831201521 86 0.0 0.0 0.00 0.00 0.00 76 1038.5
20260831201018 86 0.0 0.0 0.00 0.00 0.00 76 1038.4
20260831200515 87 0.0 0.0 0.00 0.00 0.00 76 1038.5
20260831200033 86 0.0 0.0 0.00 0.00 0.00 76 1038.6
20260831195548 87 167 0.0 1.0 0.00 0.00 0.00 75 1038.4
20260831195025 87 167 0.0 2.0 0.00 0.00 0.00 74 1038.6
20260831194523 87 167 0.0 1.0 0.00 0.00 0.00 74 1038.8
20260831194020 88 167 0.0 1.0 0.00 0.00 0.00 73 1038.7
20260831193517 89 167 0.0 2.0 0.00 0.00 0.00 72 1038.9
20260831193034 89 0.0 0.0 0.00 0.00 0.00 71 1039.0
20260831192630 90 0.0 0.0 0.00 0.00 0.00 70 1038.9
20260831192026 90 0.0 0.0 0.00 0.00 0.00 70 1038.7